Regional Weather Roundup
Issued by NWS State College, PA

Home | Current Version | Previous Version | Text Only | Print | Product List | Glossary Off
Versions: 1 2 3 4 5 6 7 8 9 10 11 12 13 14 15 16 17 18 19 20 21 22 23 24 25 26 27 28 29 30 31 32 33 34 35 36 37 38 39 40 41 42 43 44 45 46 47 48 49 50

746
ASUS41 KCTP 280410
RWRCTP

REGIONAL WEATHER ROUNDUP
NATIONAL WEATHER SERVICE STATE COLLEGE PA
1200 AM EDT WED JUN 28 2017

Note: "fair" indicates few or no clouds below 12,000 feet with no
significant weather and/or obstructions to visibility.

* = STATION THAT DOES NOT REPORT PRECIPITATION /E.G. RAIN...SNOW...ETC/
    THUNDER OR FOG.

PAZ002>004-007>009-013>016-020>023-029>032-280500-
WESTERN PENNSYLVANIA

CITY           SKY/WX    TMP DP  RH WIND       PRES   REMARKS
ERIE           CLOUDY    60  47  61 S7        30.08S
MEADVILLE      MOCLDY    56  47  71 S6        30.11S
FRANKLIN*      CLEAR     48  43  81 SW5       30.13R
NEW CASTLE     FAIR      49  47  93 CALM      30.13R
BEAVER COUNTY  NOT AVBL
BUTLER*        CLEAR     52  46  82 CALM      30.13R
PITTSBURGH INT CLEAR     56  49  77 CALM      30.12R
PITTSBURGH     CLEAR     61  43  51 W5        30.12R
INDIANA*       CLEAR     52  50  93 CALM      30.16R
LATROBE        CLEAR     54  52  94 S3        30.14R
WASHINGTON CO* CLEAR     48  45  87 CALM      30.15R
$$

PAZ004>006-010>012-017>019-024>028-033>037-041-042-045-046-049>053-280500-
CENTRAL PENNSYLVANIA

CITY           SKY/WX    TMP DP  RH WIND       PRES   REMARKS
BRADFORD       CLEAR     46  46 100 CALM      30.11R
DUBOIS         CLEAR     51  46  83 CALM      30.12R
CLEARFIELD     CLEAR     50  49  96 SW3       30.12R
JOHNSTOWN      CLEAR     54  46  74 W5        30.14R
ALTOONA        CLEAR     54  49  83 CALM      30.13R
STATE COLLEGE  CLEAR     57  47  71 W6        30.11R
WILLIAMSPORT   CLEAR     56  53  90 CALM      30.07R
SELINSGROVE    CLEAR     56  54  93 CALM      30.09R
FT INDIANTOWN  CLEAR     63  48  59 W8        30.08R
CAPITAL CITY   CLEAR     61  49  64 CALM      30.09R
HARRISBURG     PTCLDY    64  51  62 W9        30.07S
YORK           CLEAR     56  51  84 W3        30.09R
$$

PAZ038>040-043-044-047-048-054-055-060>062-067>071-280500-
EASTERN PENNSYLVANIA

CITY           SKY/WX    TMP DP  RH WIND       PRES   REMARKS
SCRANTON       CLOUDY    60  50  69 SW5       30.05R
MOUNT POCONO   CLEAR     52  47  83 NW9       30.05R
ALLENTOWN      CLEAR     62  47  57 W3        30.05R
QUAKERTOWN*    CLEAR     63  48  59 NW7       30.06R
READING        CLEAR     63  50  62 NW7       30.06R
LANCASTER      CLEAR     60  51  72 W8        30.08R
COATESVILLE    CLEAR     63  48  59 NW8       30.09R
POTTSTOWN      CLEAR     62  47  57 W6        30.07R
BLUE BELL      CLEAR     63  46  55 CALM      30.07R
DOYLESTOWN     CLEAR     63  48  58 NW6       30.04R
WILLOW GROVE   NOT AVBL
NORTH PHILA    CLEAR     68  48  48 NW8       30.06R
PHILADELPHIA   PTCLDY    69  47  45 NW13      30.06R
$$




USA.gov is the U.S. government's official web portal to all federal, state and local government web resources and services.